When you browse on this site, cookies collect data to enhance your experience and personalize the content and advertising you see.
Visit our Privacy Policy to learn more. By continuing to use the site, you agree to this use of cookies and data.

Hourly Weather Pachuca de Soto

Today, 8 August, Saturday

Time Temperature Precipitation Wind Pressure Humidity
00:00 +14°C° 0.1 mm 2 mps 574 mmHg 90%
01:00 +14°C° 0.1 mm 2 mps 573 mmHg 92%
02:00 +14°C° 0.1 mm 2 mps 573 mmHg 94%
03:00 +14°C° 0.1 mm 2 mps 573 mmHg 94%
04:00 +14°C° 0.1 mm 2 mps 573 mmHg 94%
05:00 +14°C° 0.1 mm 2 mps 573 mmHg 93%
06:00 +14°C° 0.1 mm 2 mps 574 mmHg 89%
07:00 +15°C° 0.1 mm 2 mps 574 mmHg 85%
08:00 +16°C° 0.1 mm 2 mps 575 mmHg 81%
09:00 +17°C° 0.2 mm 3 mps 575 mmHg 77%
10:00 +18°C° 0.2 mm 3 mps 575 mmHg 74%
11:00 +19°C° 0.2 mm 4 mps 576 mmHg 70%
12:00 +19°C° 0.5 mm 4 mps 575 mmHg 71%
13:00 +19°C° 0.5 mm 4 mps 575 mmHg 72%
14:00 +19°C° 0.5 mm 4 mps 574 mmHg 73%
15:00 +18°C° 0.2 mm 4 mps 574 mmHg 77%
16:00 +17°C° 0.2 mm 4 mps 573 mmHg 81%
17:00 +15°C° 0.2 mm 4 mps 573 mmHg 85%
18:00 +14°C° 0.2 mm 3 mps 573 mmHg 87%
19:00 +14°C° 0.2 mm 3 mps 574 mmHg 89%
20:00 +13°C° 0.2 mm 3 mps 574 mmHg 92%
21:00 +13°C° 0.1 mm 3 mps 574 mmHg 91%
22:00 +14°C° 0.1 mm 2 mps 574 mmHg 91%
23:00 +14°C° 0.1 mm 2 mps 574 mmHg 91%

Tomorrow, 9 August, Sunday

Time Temperature Precipitation Wind Pressure Humidity
00:00 +13°C° 0 mm 2 mps 574 mmHg 91%
01:00 +12°C° 0 mm 2 mps 573 mmHg 92%
02:00 +12°C° 0 mm 2 mps 573 mmHg 92%
03:00 +12°C° 0 mm 1 mps 573 mmHg 92%
04:00 +12°C° 0 mm 1 mps 573 mmHg 91%
05:00 +12°C° 0 mm 1 mps 573 mmHg 91%
06:00 +13°C° 0 mm 1 mps 574 mmHg 86%
07:00 +14°C° 0 mm 2 mps 574 mmHg 82%
08:00 +15°C° 0 mm 2 mps 575 mmHg 78%
09:00 +16°C° 0 mm 2 mps 576 mmHg 73%
10:00 +17°C° 0 mm 3 mps 576 mmHg 69%
11:00 +18°C° 0 mm 3 mps 577 mmHg 65%
12:00 +18°C° 0.1 mm 3 mps 576 mmHg 66%
13:00 +19°C° 0.1 mm 3 mps 576 mmHg 67%
14:00 +19°C° 0.1 mm 3 mps 575 mmHg 68%
15:00 +18°C° 0.1 mm 3 mps 575 mmHg 72%
16:00 +17°C° 0.1 mm 3 mps 574 mmHg 77%
17:00 +16°C° 0.1 mm 3 mps 573 mmHg 82%
18:00 +14°C° 0 mm 3 mps 574 mmHg 85%
19:00 +15°C° 0 mm 2 mps 574 mmHg 89%
20:00 +14°C° 0 mm 2 mps 574 mmHg 92%
21:00 +14°C° 0 mm 2 mps 574 mmHg 92%
22:00 +14°C° 0 mm 1 mps 574 mmHg 92%
23:00 +14°C° 0 mm 1 mps 574 mmHg 91%

Day after tomorrow, 10 August, Monday

Time Temperature Precipitation Wind Pressure Humidity
00:00 +14°C° 0.1 mm 1 mps 574 mmHg 92%
01:00 +14°C° 0.1 mm 1 mps 573 mmHg 92%
02:00 +14°C° 0.1 mm 1 mps 573 mmHg 92%
03:00 +13°C° 0 mm 1 mps 573 mmHg 93%
04:00 +13°C° 0 mm 1 mps 573 mmHg 93%
05:00 +13°C° 0 mm 1 mps 573 mmHg 93%
06:00 +14°C° 0 mm 1 mps 574 mmHg 88%
07:00 +15°C° 0 mm 1 mps 574 mmHg 84%
08:00 +16°C° 0 mm 1 mps 575 mmHg 79%
09:00 +18°C° 0.2 mm 1 mps 576 mmHg 74%
10:00 +19°C° 0.2 mm 2 mps 576 mmHg 69%
11:00 +20°C° 0.2 mm 2 mps 576 mmHg 64%
12:00 +20°C° 1.1 mm 3 mps 576 mmHg 68%
13:00 +19°C° 1.1 mm 3 mps 575 mmHg 71%
14:00 +19°C° 1.1 mm 4 mps 574 mmHg 75%
15:00 +18°C° 0.8 mm 3 mps 574 mmHg 79%
16:00 +17°C° 0.8 mm 3 mps 573 mmHg 83%
17:00 +16°C° 0.8 mm 3 mps 573 mmHg 87%
18:00 +16°C° 0.2 mm 3 mps 573 mmHg 89%
19:00 +14°C° 0.2 mm 3 mps 573 mmHg 90%
20:00 +14°C° 0.2 mm 3 mps 573 mmHg 92%
21:00 +14°C° 0.2 mm 2 mps 573 mmHg 93%
22:00 +14°C° 0.2 mm 2 mps 573 mmHg 93%
23:00 +14°C° 0.2 mm 1 mps 573 mmHg 93%

11 August, Tuesday

Time Temperature Precipitation Wind Pressure Humidity
00:00 +14°C° 0.1 mm 1 mps 573 mmHg 93%
01:00 +14°C° 0.1 mm 1 mps 572 mmHg 93%
02:00 +13°C° 0.1 mm 1 mps 572 mmHg 93%
03:00 +13°C° 0 mm 1 mps 572 mmHg 94%
04:00 +12°C° 0 mm 1 mps 571 mmHg 94%
05:00 +12°C° 0 mm 1 mps 571 mmHg 95%
06:00 +13°C° 0 mm 1 mps 572 mmHg 88%
07:00 +15°C° 0 mm 1 mps 573 mmHg 80%
08:00 +16°C° 0 mm 1 mps 574 mmHg 73%
09:00 +19°C° 0 mm 1 mps 575 mmHg 66%
10:00 +20°C° 0 mm 2 mps 575 mmHg 59%
11:00 +21°C° 0 mm 2 mps 576 mmHg 52%
12:00 +21°C° 0.8 mm 3 mps 575 mmHg 59%
13:00 +20°C° 0.8 mm 3 mps 574 mmHg 67%
14:00 +19°C° 0.8 mm 4 mps 573 mmHg 74%
15:00 +18°C° 0.9 mm 4 mps 573 mmHg 77%
16:00 +17°C° 0.9 mm 4 mps 572 mmHg 81%
17:00 +15°C° 0.9 mm 4 mps 572 mmHg 84%
18:00 +16°C° 0.1 mm 3 mps 572 mmHg 87%
19:00 +14°C° 0.1 mm 3 mps 572 mmHg 89%
20:00 +14°C° 0.1 mm 2 mps 572 mmHg 91%
21:00 +14°C° 0.1 mm 2 mps 573 mmHg 92%
22:00 +14°C° 0.1 mm 2 mps 573 mmHg 92%
23:00 +14°C° 0.1 mm 1 mps 573 mmHg 93%

12 August, Wednesday

Time Temperature Precipitation Wind Pressure Humidity
00:00 +13°C° 0 mm 1 mps 572 mmHg 93%
01:00 +13°C° 0 mm 1 mps 572 mmHg 93%
02:00 +12°C° 0 mm 1 mps 571 mmHg 94%
03:00 +12°C° 0 mm 1 mps 571 mmHg 93%
04:00 +12°C° 0 mm 1 mps 571 mmHg 93%
05:00 +11°C° 0 mm 1 mps 571 mmHg 93%
06:00 +13°C° 0 mm 1 mps 572 mmHg 83%
07:00 +15°C° 0 mm 1 mps 573 mmHg 73%
08:00 +16°C° 0 mm 1 mps 574 mmHg 63%
09:00 +18°C° 0 mm 2 mps 575 mmHg 56%
10:00 +20°C° 0 mm 2 mps 575 mmHg 48%
11:00 +22°C° 0 mm 3 mps 576 mmHg 41%
12:00 +22°C° 0 mm 4 mps 575 mmHg 45%
13:00 +22°C° 0 mm 5 mps 575 mmHg 50%
14:00 +21°C° 0 mm 6 mps 574 mmHg 54%
15:00 +20°C° 0.2 mm 5 mps 574 mmHg 61%
16:00 +17°C° 0.2 mm 5 mps 573 mmHg 69%
17:00 +17°C° 0.2 mm 4 mps 572 mmHg 76%
18:00 +15°C° 0 mm 4 mps 572 mmHg 81%
19:00 +14°C° 0 mm 3 mps 572 mmHg 86%
20:00 +13°C° 0 mm 2 mps 572 mmHg 91%
21:00 +13°C° 0 mm 2 mps 572 mmHg 91%
22:00 +13°C° 0 mm 2 mps 572 mmHg 92%
23:00 +13°C° 0 mm 1 mps 572 mmHg 93%

13 August, Thursday

Time Temperature Precipitation Wind Pressure Humidity
00:00 +13°C° 0 mm 1 mps 572 mmHg 92%
01:00 +13°C° 0 mm 1 mps 572 mmHg 92%
02:00 +12°C° 0 mm 1 mps 572 mmHg 91%
03:00 +12°C° 0 mm 1 mps 571 mmHg 92%
04:00 +12°C° 0 mm 1 mps 571 mmHg 93%
05:00 +11°C° 0 mm 1 mps 571 mmHg 94%
06:00 +13°C° 0 mm 1 mps 572 mmHg 86%
07:00 +14°C° 0 mm 1 mps 573 mmHg 79%
08:00 +16°C° 0 mm 1 mps 574 mmHg 71%
09:00 +17°C° 0 mm 2 mps 574 mmHg 63%
10:00 +19°C° 0 mm 3 mps 575 mmHg 55%
11:00 +21°C° 0 mm 4 mps 575 mmHg 48%
12:00 +21°C° 0 mm 4 mps 575 mmHg 49%
13:00 +21°C° 0 mm 5 mps 575 mmHg 50%
14:00 +21°C° 0 mm 5 mps 574 mmHg 51%
15:00 +20°C° 0.1 mm 5 mps 574 mmHg 58%
16:00 +17°C° 0.1 mm 5 mps 573 mmHg 64%
17:00 +16°C° 0.1 mm 5 mps 573 mmHg 71%
18:00 +15°C° 0 mm 4 mps 572 mmHg 78%
19:00 +13°C° 0 mm 3 mps 572 mmHg 86%
20:00 +13°C° 0 mm 2 mps 572 mmHg 93%
21:00 +13°C° 0 mm 2 mps 572 mmHg 93%
22:00 +12°C° 0 mm 2 mps 572 mmHg 93%
23:00 +12°C° 0 mm 1 mps 572 mmHg 93%
Show more